EA3EH-1 Weather Reports


time (UTC)temp
F
wind
direction
speed
knots
gust
knots
rain 1hr
in
rain 24hr
in
rain mn
in
humidity
%
barometer
mb
20260506154644 63 167 0.0 0.0 0.00 0.00 0.00 29 1007.0
20260506152645 64 279 1.7 0.0 0.00 0.00 0.00 26 1007.0
20260506152148 64 54 3.5 2.6 0.00 0.00 0.00 24 1007.0
20260506151647 65 151 1.7 4.3 0.00 0.00 0.00 25 1007.0
20260506150646 66 55 4.3 6.1 0.00 0.00 0.00 27 1007.0
20260506145149 67 331 0.0 2.6 0.00 0.00 0.00 27 1007.0
20260506144647 67 175 0.0 0.0 0.00 0.00 0.00 27 1007.0
20260506140646 67 95 1.7 3.5 0.00 0.00 0.00 25 1007.0
20260506135147 69 195 1.7 2.6 0.00 0.00 0.00 22 1007.0
20260506131646 70 157 0.0 1.7 0.00 0.00 0.00 22 1007.0
20260506130146 67 220 2.6 0.0 0.00 0.00 0.00 25 1007.0
20260506125146 68 244 0.0 0.0 0.00 0.00 0.00 22 1007.0
20260506124648 69 19 2.6 0.0 0.00 0.00 0.00 19 1007.0
20260506124148 70 63 0.0 0.0 0.00 0.00 0.00 19 1007.0
20260506123649 69 81 0.0 1.7 0.00 0.00 0.00 17 1008.0
20260506122646 70 85 0.0 2.6 0.00 0.00 0.00 17 1008.0
20260506121648 69 325 0.0 0.0 0.00 0.00 0.00 17 1007.0
20260506121148 69 160 1.7 0.0 0.00 0.00 0.00 17 1007.0
20260506120647 70 31 2.6 3.5 0.00 0.00 0.00 16 1007.0
20260506115648 70 124 1.7 2.6 0.00 0.00 0.00 17 1007.0
20260506115146 70 67 0.0 3.5 0.00 0.00 0.00 17 1008.0
20260506113647 68 143 2.6 2.6 0.00 0.00 0.00 20 1008.0
20260506110647 66 220 0.0 0.0 0.00 0.00 0.00 20 1008.0
20260506110146 66 225 0.0 0.0 0.00 0.00 0.00 20 1008.0
20260506105646 65 216 1.7 2.6 0.00 0.00 0.00 20 1008.0
20260506105147 65 123 0.0 0.0 0.00 0.00 0.00 23 1008.0
20260506104149 64 69 0.0 2.6 0.00 0.00 0.00 23 1008.0
20260506103648 65 138 0.0 0.0 0.00 0.00 0.00 23 1008.0
20260506103148 64 58 0.0 1.7 0.00 0.00 0.00 24 1008.0
20260506101649 63 78 0.0 0.0 0.00 0.00 0.00 24 1009.0
20260506101151 63 101 0.0 0.0 0.00 0.00 0.00 24 1009.0
20260506100647 64 91 1.7 0.0 0.00 0.00 0.00 24 1009.0
20260506100147 64 63 0.0 0.0 0.00 0.00 0.00 25 1009.0
20260506095647 64 63 0.0 0.0 0.00 0.00 0.00 26 1009.0
20260506090647 59 192 0.0 2.6 0.00 0.00 0.00 29 1009.0
20260506085145 59 192 0.0 0.0 0.00 0.00 0.00 34 1008.0
20260506084145 58 201 0.0 0.0 0.00 0.00 0.00 34 1008.0
20260506083645 58 203 0.0 0.0 0.00 0.00 0.00 35 1008.0
20260506083148 58 205 0.0 0.0 0.00 0.00 0.00 35 1008.0
20260506082645 57 197 1.7 1.7 0.00 0.00 0.00 37 1008.0
20260506082145 57 214 0.0 2.6 0.00 0.00 0.00 37 1008.0
20260506081645 57 213 0.0 0.0 0.00 0.00 0.00 38 1008.0
20260506080645 56 231 2.6 2.6 0.00 0.00 0.00 40 1008.0
20260506072645 53 269 0.0 0.0 0.00 0.00 0.00 63 1008.0
20260506071648 52 261 0.0 3.5 0.00 0.00 0.00 64 1008.0
20260506070145 51 261 0.0 0.0 0.00 0.00 0.00 67 1008.0
20260506061647 49 225 4.3 3.5 0.00 0.00 0.00 69 1008.0
20260506061147 50 242 0.0 0.0 0.00 0.00 0.00 71 1008.0
20260506060645 49 265 1.7 2.6 0.00 0.00 0.00 71 1008.0
20260506060146 49 218 2.6 1.7 0.00 0.00 0.00 72 1008.0
20260506051145 46 294 1.7 4.3 0.00 0.00 0.00 70 1008.0
20260506041146 47 289 0.0 0.0 0.00 0.00 0.00 71 1007.0
20260506033147 47 289 0.0 0.0 0.00 0.00 0.00 69 1007.0
20260506032146 47 289 0.0 1.7 0.00 0.00 0.00 69 1007.0
20260506031646 47 289 0.0 0.0 0.00 0.00 0.00 70 1007.0
20260506031145 48 289 0.0 0.0 0.00 0.00 0.00 71 1007.0
20260506030645 48 289 0.0 0.0 0.00 0.00 0.00 70 1007.0
20260506030145 48 289 0.0 0.0 0.00 0.00 0.00 70 1007.0
20260506025647 47 289 0.0 1.7 0.00 0.00 0.00 70 1007.0
20260506025146 47 289 0.0 0.0 0.00 0.00 0.00 70 1007.0
20260506024650 47 289 1.7 3.5 0.00 0.00 0.00 70 1007.0
20260506023647 48 289 1.7 2.6 0.00 0.00 0.00 71 1007.0
20260506022645 48 288 0.0 0.0 0.00 0.00 0.00 71 1007.0
20260506022145 48 288 0.0 0.0 0.00 0.00 0.00 71 1007.0
20260506020145 48 288 0.0 2.6 0.00 0.00 0.00 72 1007.0
20260506015645 49 288 0.0 0.0 0.00 0.00 0.00 72 1007.0
20260506015146 49 288 2.6 2.6 0.00 0.00 0.00 72 1007.0
20260506013648 49 288 0.0 0.0 0.00 0.00 0.00 71 1007.0
20260506011646 49 287 2.6 2.6 0.00 0.00 0.00 70 1007.0
20260506011145 49 287 0.0 1.7 0.00 0.00 0.00 71 1007.0
20260506010145 49 287 0.0 0.0 0.00 0.00 0.00 70 1007.0
20260506004645 50 287 0.0 0.0 0.00 0.00 0.00 71 1007.0
20260506003645 50 287 0.0 0.0 0.00 0.00 0.00 71 1007.0
20260506003145 50 287 0.0 0.0 0.00 0.00 0.00 73 1007.0
20260506002145 50 287 0.0 0.0 0.00 0.00 0.00 72 1007.0
20260506000647 50 287 0.0 2.6 0.00 0.00 0.00 72 1007.0
20260506000145 50 287 0.0 0.0 0.00 0.00 0.04 72 1007.0
20260505234146 51 287 0.0 0.0 0.00 0.00 0.04 71 1008.0
20260505233646 50 286 0.0 0.0 0.00 0.00 0.04 71 1008.0
20260505230645 51 285 0.0 0.0 0.00 0.00 0.04 72 1008.0
20260505230147 51 285 0.0 0.0 0.00 0.00 0.04 71 1008.0
20260505225645 51 284 3.5 1.7 0.00 0.00 0.04 71 1008.0
20260505224647 51 284 0.0 0.0 0.00 0.00 0.04 71 1008.0
20260505224146 52 284 0.0 0.0 0.00 0.00 0.04 70 1008.0
20260505222148 52 263 0.0 0.0 0.00 0.00 0.04 70 1008.0
20260505221646 52 258 0.0 0.0 0.00 0.00 0.04 69 1008.0
20260505220647 53 249 0.0 0.0 0.00 0.00 0.04 68 1008.0
20260505220147 53 269 2.6 0.0 0.00 0.00 0.04 67 1008.0
20260505215647 53 319 1.7 0.0 0.00 0.00 0.04 68 1008.0
20260505215145 53 351 0.0 0.0 0.00 0.00 0.04 69 1008.0
20260505214647 53 325 2.6 0.0 0.00 0.00 0.04 69 1008.0
20260505214147 53 308 0.0 0.0 0.00 0.00 0.04 68 1008.0
20260505213147 54 327 0.0 0.0 0.00 0.00 0.04 68 1008.0
20260505212646 54 300 0.0 0.0 0.00 0.00 0.04 69 1008.0
20260505211147 54 336 0.0 3.5 0.00 0.00 0.04 67 1008.0
20260505203647 55 21 0.0 0.0 0.00 0.00 0.04 65 1008.0
20260505203147 55 21 0.0 0.0 0.00 0.00 0.04 65 1008.0
20260505201147 56 21 0.0 0.0 0.00 0.00 0.04 64 1007.0
20260505200648 56 22 1.7 2.6 0.00 0.00 0.04 64 1007.0
20260505200148 56 40 0.0 0.0 0.00 0.00 0.04 63 1007.0
20260505195646 56 20 0.0 0.0 0.00 0.00 0.04 63 1007.0
20260505194647 56 1 0.0 0.0 0.00 0.00 0.04 64 1007.0
20260505193646 56 1 0.0 0.0 0.00 0.00 0.04 60 1007.0
20260505193146 57 1 0.0 0.0 0.00 0.00 0.04 61 1007.0
20260505192648 57 2 0.0 0.0 0.00 0.00 0.04 60 1007.0
20260505192148 57 285 0.0 0.0 0.00 0.00 0.04 59 1007.0
20260505191146 57 284 0.0 0.0 0.00 0.00 0.04 57 1007.0
20260505183646 58 333 4.3 3.5 0.00 0.00 0.04 41 1007.0
20260505182146 60 240 2.6 3.5 0.00 0.00 0.04 53 1007.0
20260505181645 61 159 0.0 3.5 0.00 0.00 0.04 54 1007.0
20260505180645 61 162 0.0 0.0 0.00 0.00 0.04 53 1006.0
20260505175645 62 164 0.0 0.0 0.00 0.00 0.04 50 1006.0
20260505175145 62 161 0.0 0.0 0.00 0.00 0.04 50 1006.0
20260505172645 63 276 0.0 1.7 0.00 0.00 0.04 44 1006.0
20260505171646 63 95 0.0 0.0 0.00 0.00 0.04 41 1006.0
20260505171145 63 137 0.0 0.0 0.00 0.00 0.04 40 1006.0
20260505170645 63 252 1.7 0.0 0.00 0.00 0.04 38 1006.0
20260505170145 63 219 2.6 0.0 0.00 0.00 0.04 37 1006.0
20260505163645 65 318 0.0 2.6 0.00 0.00 0.04 34 1006.0
20260505162145 65 337 0.0 0.0 0.00 0.00 0.04 34 1006.0